#timestamp,LO_Frequency,Hit,StdDev 
1574701215.9,286046998.2,N
1574701235.7,286047008.9,N
1574701255.5,286047008.0,N
1574701275.4,286047007.4,N
1574701295.2,286047005.9,N
1574701315.0,286047001.3,N
1574701315.9,286047001.3,N
1574701335.8,286046998.8,N
1574701355.6,286047001.2,N
1574701375.5,286046998.4,N
1574701395.3,286046996.5,N
1574701415.1,286047000.8,N
1574701435.9,286047005.7,N
1574701455.7,286047004.0,N
1574701475.5,286046995.1,N
1574701495.4,286046987.2,N
1574701515.2,286046985.5,N
1574701535.1,286046991.4,N
1574701536.0,286046991.4,N
1574701555.8,286046999.1,N
1574701575.6,286046994.7,N
1574701595.5,286046998.6,N
1574701615.3,286047002.9,N
1574701635.1,286047004.1,N
1574701655.9,286047010.5,N
1574701675.7,286047009.2,N
1574701695.6,286047009.4,N
1574701715.4,286047011.5,N
1574701735.2,286047011.3,N
1574701755.1,286047011.8,N
1574701756.0,286047011.8,N
1574701775.8,286047016.8,N
1574701795.6,286047016.0,N
1574701815.5,286047024.0,Y
1574701835.3,286047022.9,P
1574701855.2,286047021.7,N
1574701875.9,286047023.0,N
1574701895.7,286047024.0,N
1574701915.6,286047017.6,N
1574701935.4,286047018.6,N
1574701955.3,286047022.7,Y
1574701975.1,286047004.2,P
1574701976.0,286047004.2,N
1574701995.8,286047002.5,N
1574702015.7,286047003.9,N
1574702035.5,286047002.3,N
1574702055.3,286047001.5,N
1574702075.2,286047004.7,N
1574702095.0,286047008.4,N
1574702095.9,286047008.4,N
1574702115.8,286047013.5,N
1574702135.6,286047017.8,Y
1574702155.4,286047009.4,P
1574702175.3,286047011.8,P
1574702195.1,286047013.1,P
1574702215.9,286047015.1,Y
1574702235.7,286047005.2,P
1574702255.5,286047010.6,P
1574702275.4,286047010.2,P
1574702295.2,286047006.7,N
1574702315.0,286047009.0,Y
1574702316.0,286047009.0,P
1574702335.8,286046996.9,P
1574702355.6,286046996.5,N
1574702375.5,286046998.2,N
1574702395.3,286047000.5,N
1574702415.1,286046995.6,N
1574702435.9,286046993.7,N
1574702455.7,286046994.0,N
1574702475.6,286046994.3,N
1574702495.4,286046996.2,N
1574702515.2,286046996.4,N
1574702535.1,286046990.2,N
1574702536.0,286046990.2,N
1574702555.8,286046991.1,N
1574702575.6,286046987.5,N
1574702595.5,286046991.7,N
1574702615.3,286046997.3,N
1574702635.2,286046998.5,N
1574702655.9,286047000.4,N
1574702675.7,286047003.8,N
1574702695.6,286047005.9,N
1574702715.4,286047005.0,N
1574702735.2,286047008.2,N
1574702755.1,286047009.7,N
1574702756.0,286047009.7,N
1574702775.8,286047006.5,N
1574702795.7,286047007.6,N
1574702815.5,286047008.4,N
1574702835.3,286047008.4,N
1574702855.2,286047007.5,N
1574702875.9,286047009.1,N
1574702895.7,286047010.4,N
1574702915.6,286047012.2,N
1574702935.4,286047014.5,N
1574702955.2,286047023.0,N
1574702975.1,286047017.5,N
1574702976.0,286047017.5,N
1574702995.8,286047023.6,N
1574703015.7,286047018.1,N
1574703035.5,286047015.9,N
1574703055.3,286047015.8,N
1574703075.2,286047019.7,N
1574703095.0,286047015.0,N
1574703095.9,286047015.0,N
1574703115.8,286047016.9,N
1574703135.6,286047021.9,N
1574703155.4,286047020.6,Y
1574703175.3,286047011.6,P
1574703195.1,286047008.6,P
1574703215.8,286047004.3,P
1574703235.7,286046996.6,N
1574703255.5,286046999.1,N
1574703275.4,286046988.1,N
1574703295.2,286046987.4,N
1574703315.0,286046994.6,N
1574703315.9,286046994.6,N
1574703335.8,286046991.8,N
1574703355.6,286046999.1,N
1574703375.4,286046999.0,N
1574703395.3,286046999.3,N
1574703415.1,286046997.4,N
1574703435.9,286046994.2,N
1574703455.3,286046995.2,N
1574703505.2,286046998.0,E
1574703515.1,286046998.0,N
1574703535.9,286046997.5,P
1574703555.7,286047000.6,N
1574703575.6,286047001.8,N
1574703595.4,286047003.4,N
1574703615.2,286047006.7,N
1574703635.1,286047010.4,Y
1574703636.0,286047010.4,P
1574703655.8,286047010.4,N
1574703675.6,286047013.5,P
1574703695.5,286047011.3,N
1574703715.3,286047012.1,N
1574703735.2,286047008.1,N
1574703755.9,286047012.5,Y
1574703775.7,286047000.0,P
1574703795.6,286046998.5,N
1574703815.4,286047002.1,N
1574703835.2,286047007.1,N
1574703855.1,286047011.7,N
1574703856.0,286047011.7,N
1574703875.8,286047015.3,N
1574703895.7,286047008.9,N
1574703915.5,286047002.6,N
1574703935.3,286046990.6,N
1574703955.2,286046988.4,N
1574703975.0,286046979.4,N
1574703975.9,286046979.4,N
1574703995.8,286046976.9,N
1574704015.6,286046971.3,N
1574704035.4,286046970.4,N
1574704055.3,286046974.8,N
1574704075.1,286046978.1,N
1574704076.0,286046978.1,N
1574704095.8,286046983.7,N
1574704115.7,286046987.2,N
1574704135.5,286046988.1,N
1574704155.3,286046976.3,N
1574704175.2,286046975.4,N
1574704195.0,286046979.3,N
1574704195.9,286046979.3,N
1574704215.8,286046981.2,N
1574704235.6,286046984.5,N
1574704255.4,286046987.6,N
1574704275.3,286046990.7,N
1574704295.1,286046993.5,N
1574704315.9,286046998.5,N
1574704335.7,286047000.9,N
1574704355.5,286046998.2,N
1574704375.4,286046996.1,N
1574704395.2,286046994.4,N
1574704415.0,286046994.2,N
1574704415.9,286046994.2,N
1574704435.8,286046993.9,N
1574704455.6,286046993.6,N
1574704475.5,286046995.5,N
1574704495.3,286046998.1,N
1574704515.1,286046998.3,N
1574704535.9,286046993.2,N
1574704555.7,286046982.6,N
1574704575.5,286046986.7,N
1574704595.4,286046989.0,N
1574704615.2,286046988.1,N
1574704635.1,286046988.0,N
1574704636.0,286046988.0,N
1574704655.8,286046987.2,N
1574704675.6,286046989.3,N
1574704695.5,286046987.7,N
1574704715.3,286046984.6,N
1574704735.1,286046984.2,N
1574704755.9,286046990.0,N
1574704775.7,286046991.3,N
1574704795.6,286046994.1,N
